[[{"header":{"parameterUnit":"m.s-1","parameterCategory":1,"la1":30.2991,"la2":30.254,"lo1":-89.0895,"lo2":-89.0444,"dy":0.0017,"dx":0.0017,"nx":28,"ny":28,"refTime":"2023-08-26T03:00:00:Z","depth":0,"parameterNumber":2,"parameterNumberName":"U-component_of_WINDS"},"data":[0,0,0,0,0,0,0,0,0,0,0,0,0,0,0,0,0,0,0,0,0,0,0,0,0,0,0,0,0,0,0,0,0,0,0,0,0,0,0,0,0,0,0,0,0,0,0,0,0,0,0,0,0,0,0,0,0,0,-3.6873,-3.6873,0,-3.6805,-3.6805,-3.6804,-3.6645,-3.6642,-3.6638,-3.6635,-3.657,-3.6571,-3.6572,0,0,0,0,0,0,0,0,0,0,0,0,0,-3.687,-3.687,-3.6873,-3.6873,-3.6872,-3.6805,-3.6805,-3.6804,-3.6646,-3.6641,-3.6637,-3.6634,-3.6569,-3.6571,-3.6572,0,0,0,0,0,0,0,0,0,0,0,0,0,-3.6844,-3.6871,-3.6874,-3.6785,-3.6776,-3.6806,-3.6805,-3.6803,-3.6646,-3.6641,-3.6636,-3.6632,-3.6569,-3.6571,-3.6572,-3.6684,0,0,-3.6579,-3.6579,0,0,0,0,0,0,0,0,-3.6845,-3.6844,-3.6799,-3.6791,-3.6781,-3.6728,-3.6779,-3.6764,-3.6648,-3.6696,-3.6635,-3.6629,-3.6627,-3.6624,-3.6622,-3.6681,-3.6678,-3.6579,-3.658,-3.6581,-3.6581,0,0,0,0,0,0,0,-3.6847,-3.6846,-3.6846,-3.6798,-3.6788,-3.6749,-3.674,-3.6775,-3.669,-3.6691,-3.6679,-3.6673,-3.6621,-3.662,-3.6619,-3.6677,-3.6579,-3.658,-3.6582,-3.6582,-3.6823,-3.6828,0,0,0,0,0,0,-3.6861,-3.6849,-3.6849,-3.6844,-3.6802,-3.6753,-3.6743,-3.6751,-3.6689,-3.6675,-3.6678,-3.6666,-3.6619,-3.6617,-3.6616,-3.6741,-3.6581,-3.6583,-3.6584,-3.6818,-3.6825,-3.683,0,0,0,0,0,0,-3.6862,-3.6863,-3.6851,-3.6843,-3.6839,-3.6759,-3.6768,-3.6752,-3.6751,-3.6679,-3.6663,-3.6692,-3.6615,-3.6613,-3.6668,-3.6737,-3.6584,-3.6585,-3.6812,-3.682,-3.6827,-3.6994,0,0,0,0,0,0,-3.6863,-3.6864,-3.6905,-3.6845,-3.684,-3.6904,-3.6773,-3.6754,-3.6754,-3.6739,-3.6689,-3.6676,-3.6611,-3.6666,-3.667,-3.6737,-3.6587,-3.6805,-3.6816,-3.6825,-3.6982,-3.7007,-3.7028,0,0,0,0,0,-3.6863,-3.6956,-3.6908,-3.6909,-3.6889,-3.6908,-3.6905,-3.6828,-3.676,-3.6801,-3.6755,-3.6677,-3.6729,-3.6673,-3.6676,-3.6745,-3.6801,-3.6813,-3.6824,-3.6972,-3.7002,-3.7028,0,0,0,0,0,0,-3.7027,-3.6946,-3.6892,-3.6968,-3.6946,-3.6881,-3.693,-3.6863,-3.686,-3.6846,-3.6751,-3.6742,-3.6809,-3.6782,-3.6721,-3.6849,-3.6752,-3.6765,-3.6864,-3.6892,-3.6914,-3.6919,-3.6589,0,0,0,0,0,-3.7072,-3.7093,-3.7022,-3.7096,-3.7087,-3.7011,-3.7017,-3.6959,-3.6933,-3.6923,-3.688,-3.6859,-3.687,-3.688,-3.6886,-3.6978,-3.6965,-3.7027,-3.705,-3.7069,-3.7081,-3.7127,-3.7154,-3.6869,-3.6868,-3.6868,0,0,-3.7165,-3.7124,-3.7143,-3.7128,-3.7104,-3.7128,-3.7004,-3.7036,-3.7053,-3.6928,-3.6976,-3.6945,-3.6914,-3.6988,-3.7018,-3.6968,-3.7157,-3.7084,-3.71,-3.7101,-3.7142,-3.7169,-3.7193,-3.6877,-3.6875,-3.6874,0,0,-3.7347,-3.7318,-3.7376,-3.7354,-3.7319,-3.7267,-3.7282,-3.7227,-3.7201,-3.7247,-3.7153,-3.7174,-3.7195,-3.7177,-3.7171,-3.7346,-3.7274,-3.7351,-3.747,-3.7516,-3.7538,-3.7558,-3.7619,-3.7643,-3.7364,-3.7364,-3.7364,0,-3.7468,-3.75,-3.7415,-3.7451,-3.7448,-3.7334,-3.7392,-3.7376,-3.7346,-3.7346,-3.729,-3.7314,-3.7286,-3.7353,-3.7395,-3.7395,-3.7408,-3.7356,-3.7542,-3.7561,-3.7577,-3.7635,-3.7659,-3.7374,-3.7372,-3.7371,-3.7371,0,-3.7649,-3.7673,-3.7724,-3.7696,-3.7698,-3.7746,-3.7669,-3.7681,-3.7624,-3.7579,-3.7628,-3.759,-3.7586,-3.7598,-3.7544,-3.7658,-3.7628,-3.7559,-3.7459,-3.7616,-3.7668,-3.769,-3.7387,-3.7384,-3.7381,-3.7379,0,0,-3.7932,-3.7855,-3.7875,-3.7861,-3.7813,-3.7831,-3.7874,-3.7869,-3.7881,-3.7864,-3.7898,-3.7919,-3.7854,-3.7847,-3.7789,-3.783,-3.797,-3.7755,-3.7753,-3.7795,-3.8093,-3.8144,-3.8171,-3.7922,-3.7926,-3.7929,-3.8095,0,-3.8102,-3.8168,-3.8093,-3.8177,-3.8197,-3.809,-3.8127,-3.8103,-3.8063,-3.8075,-3.8031,-3.8046,-3.796,-3.7955,-3.7991,-3.7945,-3.8028,-3.7932,-3.7953,-3.7954,-3.7962,-3.8198,-3.8253,-3.8411,-3.8115,-3.8118,-3.8121,0,-3.8308,-3.8299,-3.8384,-3.833,-3.8336,-3.8371,-3.836,-3.8374,-3.8344,-3.8312,-3.8304,-3.8234,-3.8273,-3.8177,-3.823,-3.8167,-3.8171,-3.815,-3.8154,-3.8152,-3.8046,-3.8202,-3.8459,-3.8483,-3.8152,-3.815,-3.8148,0,-3.8504,-3.8514,-3.8565,-3.8556,-3.8496,-3.8522,-3.8499,-3.8464,-3.8466,-3.8457,-3.8457,-3.8454,-3.8452,-3.8452,-3.8383,-3.832,-3.8444,-3.8342,-3.8418,-3.842,-3.8448,-3.8447,-3.8709,-3.8453,-3.8453,-3.8453,-3.8452,0,-3.8701,-3.8757,-3.8652,-3.8684,-3.8744,-3.8658,-3.8719,-3.8685,-3.8655,-3.8679,-3.8587,-3.8612,-3.852,-3.8535,-3.8482,-3.8533,-3.8533,-3.8508,-3.8493,-3.8515,-3.8519,-3.8516,-3.8503,-3.8459,-3.8457,-3.8456,-3.8455,0,-3.8929,-3.8862,-3.891,-3.8849,-3.8835,-3.8881,-3.8829,-3.8856,-3.8809,-3.8841,-3.8843,-3.8771,-3.8784,-3.8715,-3.8716,-3.868,-3.8758,-3.8725,-3.8767,-3.8756,-3.8835,-3.8828,-3.9103,-3.9135,-3.8862,-3.8864,-3.8866,0,-3.9058,-3.9098,-3.9041,-3.9049,-3.9029,-3.9045,-3.9045,-3.8963,-3.8968,-3.8937,-3.8968,-3.8973,-3.8973,-3.8999,-3.8947,-3.8947,-3.8912,-3.9009,-3.8912,-3.8933,-3.8912,-3.891,-3.8913,-3.9029,-3.9032,-3.9035,-3.9037,0,-3.9294,-3.9258,-3.9262,-3.9255,-3.9258,-3.9248,-3.9233,-3.9245,-3.9156,-3.9166,-3.9177,-3.9177,-3.9177,-3.9184,-3.9173,-3.915,-3.9079,-3.9069,-3.9086,-3.9108,-3.913,-3.9118,-3.8821,-3.9062,-3.906,-3.9058,-3.9057,-3.9056,-3.9475,-3.9505,-3.9469,-3.9476,-3.9456,-3.9443,-3.9465,-3.9421,-3.9429,-3.9421,-3.9373,-3.9393,-3.9363,-3.9341,-3.9325,-3.934,-3.9294,-3.932,-3.9326,-3.9333,-3.9346,-3.913,-3.9338,-3.9337,-3.9337,-3.9336,-3.9335,0,-3.9705,-3.9676,-3.9684,-3.9664,-3.967,-3.9602,-3.9581,-3.9591,-3.961,-3.9587,-3.9588,-3.9601,-3.9606,-3.9555,-3.9554,-3.9576,-3.9543,-3.9578,-3.9575,-3.957,-3.9388,-3.9372,-3.9604,-3.9604,-3.9604,-3.9604,-3.9604,-3.9604,-3.9824,-3.9872,-3.9832,-3.9869,-3.9839,-3.9857,-3.9851,-3.984,-3.982,-3.9839,-3.9842,-3.9808,-3.9774,-3.9769,-3.9772,-3.9756,-3.976,-3.9806,-3.978,-3.961,-3.9584,-3.9559,-3.9543,-3.9808,-3.9808,-3.996,-3.9962,-3.9963]},{"header":{"parameterUnit":"m.s-1","parameterCategory":1,"la1":30.2991,"la2":30.254,"lo1":-89.0895,"lo2":-89.0444,"dy":0.0017,"dx":0.0017,"nx":28,"ny":28,"refTime":"2023-08-26T03:00:00:Z","depth":0,"parameterNumber":3,"parameterNumberName":"V-component_of_WINDS"},"data":[0,0,0,0,0,0,0,0,0,0,0,0,0,0,0,0,0,0,0,0,0,0,0,0,0,0,0,0,0,0,0,0,0,0,0,0,0,0,0,0,0,0,0,0,0,0,0,0,0,0,0,0,0,0,0,0,0,0,-2.0325,-2.0327,0,-2.0471,-2.0473,-2.0475,-2.0501,-2.05,-2.0498,-2.0497,-2.0653,-2.0658,-2.0663,0,0,0,0,0,0,0,0,0,0,0,0,0,-2.0071,-2.0075,-2.0325,-2.0327,-2.0329,-2.0471,-2.0473,-2.0475,-2.0501,-2.05,-2.0498,-2.0497,-2.0651,-2.0657,-2.0664,0,0,0,0,0,0,0,0,0,0,0,0,0,-2.0196,-2.0077,-2.0325,-2.0359,-2.0363,-2.0471,-2.0473,-2.0476,-2.0501,-2.05,-2.0498,-2.0496,-2.0649,-2.0657,-2.0664,-2.075,0,0,-2.0689,-2.0692,0,0,0,0,0,0,0,0,-2.0189,-2.0205,-2.0352,-2.0356,-2.0362,-2.0466,-2.0441,-2.0568,-2.0502,-2.0449,-2.0497,-2.0495,-2.0592,-2.0605,-2.0637,-2.0758,-2.0764,-2.0689,-2.0694,-2.0698,-2.07,0,0,0,0,0,0,0,-2.018,-2.0199,-2.0383,-2.0354,-2.036,-2.0367,-2.0383,-2.0465,-2.053,-2.0454,-2.0456,-2.0472,-2.0595,-2.0629,-2.064,-2.0767,-2.0689,-2.0696,-2.0701,-2.0704,-2.0964,-2.0966,0,0,0,0,0,0,-2.0165,-2.0192,-2.0378,-2.0388,-2.0269,-2.0374,-2.0391,-2.0434,-2.0529,-2.0541,-2.0474,-2.0473,-2.0616,-2.0631,-2.0646,-2.0752,-2.0698,-2.0705,-2.071,-2.0961,-2.0964,-2.0966,0,0,0,0,0,0,-2.0159,-2.0181,-2.0373,-2.029,-2.0315,-2.038,-2.0428,-2.0438,-2.0472,-2.0544,-2.0556,-2.0497,-2.0615,-2.0635,-2.0723,-2.0758,-2.0709,-2.0716,-2.0959,-2.0962,-2.0965,-2.0964,0,0,0,0,0,0,-2.0152,-2.0179,-2.0212,-2.0291,-2.0319,-2.0447,-2.043,-2.0442,-2.0485,-2.0486,-2.0568,-2.0581,-2.0615,-2.0711,-2.0731,-2.0768,-2.0722,-2.0956,-2.096,-2.0964,-2.0962,-2.0967,-2.0972,0,0,0,0,0,-2.0143,-2.0208,-2.0213,-2.0236,-2.0362,-2.0449,-2.0465,-2.0502,-2.0488,-2.0522,-2.0567,-2.0578,-2.075,-2.072,-2.0743,-2.0782,-2.0954,-2.0959,-2.0964,-2.0959,-2.0966,-2.0972,0,0,0,0,0,0,-2.0134,-2.0219,-2.0226,-2.0318,-2.0375,-2.0453,-2.0497,-2.0509,-2.0573,-2.0571,-2.0616,-2.0635,-2.072,-2.076,-2.0725,-2.0869,-2.0851,-2.0861,-2.084,-2.0847,-2.0852,-2.0841,-2.0729,0,0,0,0,0,-2.0142,-2.0204,-2.0276,-2.035,-2.0378,-2.0432,-2.0472,-2.0495,-2.0557,-2.0582,-2.0634,-2.0696,-2.0763,-2.0807,-2.0874,-2.0967,-2.0985,-2.1005,-2.101,-2.1014,-2.1022,-2.1073,-2.1082,-2.0982,-2.0982,-2.0982,0,0,-2.0161,-2.0215,-2.0252,-2.0349,-2.0397,-2.0461,-2.0453,-2.0522,-2.057,-2.0593,-2.0679,-2.0719,-2.0791,-2.0881,-2.0924,-2.0917,-2.1053,-2.102,-2.1022,-2.1029,-2.1079,-2.1088,-2.1096,-2.0985,-2.0985,-2.0984,0,0,-2.0228,-2.0275,-2.0341,-2.0388,-2.0458,-2.0493,-2.0509,-2.0584,-2.061,-2.0697,-2.0715,-2.0773,-2.0889,-2.0939,-2.0979,-2.1061,-2.1073,-2.1081,-2.1109,-2.1158,-2.1165,-2.1173,-2.1202,-2.1211,-2.1089,-2.1089,-2.1089,0,-2.0244,-2.034,-2.0375,-2.0442,-2.0484,-2.0504,-2.0572,-2.0616,-2.0705,-2.0734,-2.0725,-2.0869,-2.0919,-2.102,-2.1039,-2.1072,-2.1091,-2.1073,-2.1161,-2.1169,-2.1176,-2.1204,-2.1215,-2.1089,-2.1089,-2.1089,-2.1089,0,-2.0354,-2.042,-2.0466,-2.0548,-2.0595,-2.0662,-2.0708,-2.0751,-2.0769,-2.0805,-2.0893,-2.0952,-2.103,-2.1056,-2.1076,-2.116,-2.1153,-2.1152,-2.1135,-2.1185,-2.1213,-2.1224,-2.109,-2.109,-2.109,-2.109,0,0,-2.0424,-2.0521,-2.0537,-2.0574,-2.0651,-2.0704,-2.0771,-2.0845,-2.0881,-2.0941,-2.0999,-2.1095,-2.1093,-2.1139,-2.1164,-2.1207,-2.1267,-2.12,-2.1203,-2.1211,-2.1363,-2.1364,-2.1376,-2.1274,-2.1276,-2.1278,-2.1357,0,-2.05,-2.0619,-2.0651,-2.0752,-2.0813,-2.0832,-2.0891,-2.0945,-2.0979,-2.1037,-2.1076,-2.1143,-2.1136,-2.1163,-2.1206,-2.125,-2.1298,-2.1245,-2.133,-2.1332,-2.1312,-2.139,-2.1392,-2.1463,-2.1368,-2.1369,-2.1371,0,-2.0606,-2.0665,-2.0771,-2.0838,-2.0865,-2.0917,-2.0986,-2.104,-2.1102,-2.1124,-2.1172,-2.1193,-2.1264,-2.1242,-2.1341,-2.1304,-2.134,-2.1367,-2.1371,-2.1381,-2.1355,-2.1403,-2.1487,-2.1498,-2.1388,-2.1387,-2.1385,0,-2.0645,-2.0751,-2.0828,-2.0859,-2.0939,-2.0975,-2.101,-2.1069,-2.1111,-2.1171,-2.1198,-2.1267,-2.1305,-2.1358,-2.1397,-2.1377,-2.1493,-2.1474,-2.1514,-2.1513,-2.1539,-2.1537,-2.1631,-2.1561,-2.1561,-2.156,-2.156,0,-2.0728,-2.0792,-2.0846,-2.0894,-2.0966,-2.1001,-2.1073,-2.1109,-2.1161,-2.1216,-2.1237,-2.1289,-2.1336,-2.1395,-2.1425,-2.1503,-2.152,-2.154,-2.1548,-2.1539,-2.1536,-2.1565,-2.1561,-2.1563,-2.1563,-2.1562,-2.1562,0,-2.0785,-2.0823,-2.0908,-2.0975,-2.0994,-2.1044,-2.1102,-2.1149,-2.1183,-2.1253,-2.1271,-2.1325,-2.1395,-2.1437,-2.1527,-2.1547,-2.1632,-2.1638,-2.1611,-2.1614,-2.1652,-2.1648,-2.1768,-2.1786,-2.1703,-2.1704,-2.1704,0,-2.0836,-2.0885,-2.0956,-2.0993,-2.1028,-2.1088,-2.1129,-2.1165,-2.1208,-2.1279,-2.1318,-2.1388,-2.1446,-2.1556,-2.1604,-2.1672,-2.168,-2.1717,-2.1691,-2.1679,-2.1681,-2.1678,-2.1683,-2.1722,-2.1723,-2.1723,-2.1724,0,-2.0921,-2.0937,-2.0994,-2.1057,-2.1105,-2.1158,-2.121,-2.124,-2.1285,-2.1331,-2.1401,-2.1446,-2.1534,-2.1604,-2.1675,-2.1713,-2.1727,-2.1731,-2.1744,-2.1736,-2.1719,-2.1729,-2.1623,-2.1729,-2.1729,-2.1728,-2.1728,-2.1728,-2.0977,-2.1021,-2.1077,-2.114,-2.1182,-2.1229,-2.1276,-2.1314,-2.1372,-2.1445,-2.1463,-2.1536,-2.1595,-2.1691,-2.173,-2.1789,-2.1783,-2.1802,-2.1807,-2.1812,-2.1812,-2.1708,-2.1802,-2.1802,-2.1802,-2.1802,-2.1801,0,-2.1064,-2.11,-2.1157,-2.1227,-2.1276,-2.1281,-2.1338,-2.138,-2.1442,-2.1495,-2.155,-2.1629,-2.1696,-2.1748,-2.1816,-2.1853,-2.1861,-2.187,-2.1868,-2.1877,-2.1813,-2.1795,-2.1862,-2.1862,-2.1862,-2.1862,-2.1862,-2.1862,-2.1115,-2.1189,-2.121,-2.1305,-2.1341,-2.1411,-2.1443,-2.1487,-2.1529,-2.1615,-2.1669,-2.1701,-2.1754,-2.1826,-2.1887,-2.1901,-2.1925,-2.1933,-2.1948,-2.1888,-2.1881,-2.1875,-2.1858,-2.1938,-2.1938,-2.2007,-2.2008,-2.2008]}]]